Meteo Giornale » Osservazioni meteo Italia » Roma Fiumicino

ore: 09:50 - Osservazioni Meteo Roma Fiumicino
Lat. 41° 48' N Lon. 12° 14' E Alt. 2 metri s.l.m.

poco_nuvoloso Europe/Rome

15 °C

Poco Nuvoloso

Temp. 24 Ore

6 °C

22 °C

Nord

14.8 Km/h

Dew point 9 °C

Umidità 67 %

Visibilità  10 Km

Il sole sorge alle ore 06:01

Il sole tramonta alle ore 18:31

Data e Ora Cielo e Fenomeni T °C DP °C Um. % Pres. hPa Vis. km Vento km/h
Oggi h: 09:50 poco_nuvoloso Poco Nuvoloso 15 9 67 1019 10 N 14.8
Oggi h: 09:20 sereno Sereno 15 10 72 1019 10 N 14.8
Oggi h: 08:50 sereno Sereno 14 11 82 1019 10 N 13
Oggi h: 08:20 sereno Sereno 12 10 87 1019 10 N/NO 16.7
Oggi h: 07:50 sereno Sereno 11 10 93 1020 10 NO 9.3
Oggi h: 07:20 sereno Sereno 9 9 100 1020 10 NE 7.4
Oggi h: 06:50 nebbia Nebbia a Strati 8 8 100 1020 0.8 N 3.7
Oggi h: 06:20 nebbia Nebbia a Strati 8 8 100 1020 0.8 N 0
Oggi h: 05:50 nebbia Nebbia a Strati 6 6 100 1020 0.8 N 7.4
Oggi h: 05:20 nebbia Nebbia a Strati 7 7 100 1020 0.8 N 5.5
Oggi h: 04:50 nebbia Nebbia a Strati 7 6 93 1020 7 N 1.8
Oggi h: 04:20 nebbia Nebbia a Strati 9 9 100 1020 9 N 0
Oggi h: 03:50 nebbia Nebbia a Strati 9 8 93 1019 9 N 5.5
Oggi h: 03:20 nebbia Nebbia a Strati 8 8 100 1019 9 N 5.5
Oggi h: 03:50 poco_nuvoloso Poco Nuvoloso 9 9 100 1019 8 N 3.7
Oggi h: 03:20 sereno Sereno 10 9 93 1019 10 N 5.5
Oggi h: 01:50 sereno Sereno 11 10 93 1020 10 E 7.4
Oggi h: 01:20 sereno Sereno 12 11 93 1020 10 N 1.8
Oggi h: 00:50 poco_nuvoloso Poco Nuvoloso 12 11 93 1020 10 N 5.5
Oggi h: 00:20 nuvoloso Nuvoloso 13 11 87 1020 10 O/NO 9.3
Ieri h: 23:50 nuvoloso Nuvoloso 13 11 87 1020 10 O 9.3
Ieri h: 23:20 nuvoloso Nuvoloso 13 11 87 1020 10 O 13
Ieri h: 22:50 nuvoloso Nuvoloso 13 11 87 1020 10 O 16.7
Ieri h: 22:20 coperto_pioggia Pioggia Debole 14 12 87 1020 10 O/NO 9.3
Ieri h: 21:50 coperto_pioggia Pioggia Debole 15 13 87 1020 10 SE 11.1
Ieri h: 21:20 poco_nuvoloso Poco Nuvoloso 15 13 87 1020 10 S/SE 9.3
Ieri h: 20:50 poco_nuvoloso Poco Nuvoloso 15 13 87 1020 10 SE 9.3
Ieri h: 20:20 nuvoloso Nuvoloso 15 13 87 1020 10 SE 7.4
Ieri h: 19:50 nuvoloso Nuvoloso 16 13 82 1020 10 S 7.4
Ieri h: 19:20 poco_nuvoloso Poco Nuvoloso 16 13 82 1020 10 S 9.3
Ieri h: 18:50 sereno Sereno 15 13 87 1020 10 S/SO 11.1
Ieri h: 18:20 sereno Sereno 16 13 82 1019 10 S/SO 11.1
Ieri h: 17:50 sereno Sereno 16 12 77 1019 10 S/SO 14.8
Ieri h: 17:20 sereno Sereno 17 12 72 1019 10 SO 16.7
Ieri h: 16:50 sereno Sereno 17 12 72 1019 10 SO 20.3
Ieri h: 16:20 sereno Sereno 18 12 67 1019 10 SO 16.7
Ieri h: 15:50 sereno Sereno 18 12 67 1019 10 O/SO 18.5
Ieri h: 15:20 sereno Sereno 19 11 59 1019 10 O/SO 14.8
Ieri h: 14:50 sereno Sereno 19 10 55 1019 10 SO 20.3
Ieri h: 14:20 sereno Sereno 20 9 49 1020 10 S/SO 14.8
Ieri h: 13:50 sereno Sereno 20 10 52 1020 10 S/SO 18.5
Ieri h: 13:20 poco_nuvoloso Poco Nuvoloso 20 10 52 1020 10 S/SO 24
Ieri h: 12:50 poco_nuvoloso Poco Nuvoloso 19 10 55 1021 10 S/SO 27.8
Ieri h: 12:20 sereno Sereno 20 9 49 1021 10 S/SO 31.5
Ieri h: 11:50 sereno Sereno 22 9 43 1021 10 S 18.5
Ieri h: 11:20 sereno Sereno 22 11 49 1021 10 S 18.5
Ieri h: 10:50 sereno Sereno 21 10 49 1021 10 S 18.5